Flag for Romania Weather past 2 weeks in Oradea, Romania

Now
73 °F

Passing clouds.


Feels Like: 77 °F
Forecast: 62 / 70 °F
Wind: 5 mph from Southeast

Location: Oradea Airport

Current Time: Sep 19, 2014 at 1:20:07 PM

Latest Report: Sep 19, 2014 at 1:00 PM


Visibility: N/A

Pressure: 30.18 "Hg

Humidity: 33%

Dew point: 43 °F

Location of OradeaLocation

Historic Weather in Oradea — Graph

°F

Oradea temperature yesterday

Maximum temperature yesterday: 77 °F (at 4:00 PM)
Minimum temperature yesterday: 50 °F (at 4:00 AM)
Average temperature yesterday: 63 °F

Past Weeks' High & Low Weather Summary

 TemperatureHumidityPressure
High82 °F (Sep 4, 4:30 PM)100% (Sep 15, 9:00 AM)30.18 "Hg (Sep 15, 9:00 AM)
Low50 °F (Sep 18, 4:00 AM)32% (Sep 9, 3:30 PM)29.86 "Hg (Sep 11, 3:30 PM)
Average67 °F72%30.01 "Hg
* Reported Sep 4 12:00 Noon — Sep 19 12:00 Noon, Oradea, Weather by CustomWeather, © 2014

Note: Actual official high and low records may vary slightly from our data, if they occured in-between our weather recording intervals... More about our weather records

Advertising

Oradea weather history for previous 24 hours

 ConditionsComfort  
Time TempWeatherWind HumidityBarometerVisibility
12:00 PM
Sep 19
72 °FSunny.7 mph41%30.18 "Hg10 mi
11:30 AM70 °FPassing clouds.7 mph46%30.18 "HgN/A
11:00 AM68 °FPassing clouds.7 mph53%30.18 "HgN/A
10:30 AM66 °FPassing clouds.7 mph56%30.18 "HgN/A
10:00 AM63 °FPassing clouds.7 mph64%30.18 "HgN/A
9:30 AM59 °FSunny.7 mph72%30.18 "Hg10 mi
9:00 AM57 °FSunny.7 mph72%30.18 "Hg10 mi
8:30 AM54 °FSunny.7 mph82%30.18 "Hg10 mi
8:00 AM52 °FClear.7 mph82%30.18 "Hg10 mi
7:30 AM50 °FClear.9 mph88%30.18 "Hg10 mi
7:00 AM50 °FClear.7 mph88%30.18 "Hg10 mi
6:30 AM50 °FClear.7 mph88%30.18 "Hg10 mi
6:00 AM50 °FClear.7 mph88%30.18 "Hg10 mi
5:30 AM50 °FClear.7 mph88%30.18 "Hg10 mi
5:00 AM50 °FClear.7 mph88%30.18 "Hg10 mi
4:00 AM52 °FCool.7 mph82%30.18 "HgN/A
3:00 AM52 °FCool.7 mph88%30.18 "HgN/A
2:00 AM52 °FCool.7 mph88%30.18 "HgN/A
1:00 AM54 °FCool.7 mph82%30.18 "HgN/A
12:00 AM54 °FCool.7 mph88%30.18 "HgN/A
11:00 PM
Sep 18
55 °FCool.7 mph82%30.18 "HgN/A
10:30 PM57 °FClear.2 mph77%30.18 "Hg10 mi
10:00 PM57 °FClear.2 mph82%30.18 "Hg10 mi
9:30 PM61 °FClear.2 mph72%30.18 "Hg10 mi
9:00 PM59 °FClear.2 mph77%30.15 "Hg10 mi
8:30 PM61 °FSunny.5 mph72%30.15 "Hg10 mi
8:00 PM64 °FSunny.5 mph64%30.15 "Hg10 mi
7:30 PM68 °FSunny.5 mph53%30.15 "Hg10 mi
7:00 PM72 °FSunny.7 mph47%30.15 "Hg10 mi
6:30 PM73 °FSunny.5 mph38%30.15 "Hg10 mi
6:00 PM75 °FSunny.5 mph36%30.12 "Hg10 mi
5:30 PM75 °FSunny.2 mph34%30.12 "Hg10 mi
5:00 PM75 °FMild.2 mph34%30.12 "HgN/A
4:30 PM75 °FSunny.5 mph36%30.12 "Hg10 mi
4:00 PM77 °FSunny.2 mph34%30.12 "Hg10 mi
3:30 PM75 °FSunny.5 mph36%30.12 "Hg10 mi
3:00 PM75 °FPassing clouds.7 mph36%30.15 "HgN/A
2:30 PM73 °FPassing clouds.9 mph44%30.15 "HgN/A
2:00 PM73 °FSunny.5 mph38%30.15 "Hg10 mi
1:30 PM73 °FSunny.2 mph38%30.15 "Hg10 mi
1:00 PM73 °FMild.2 mph38%30.15 "HgN/A
Weather by CustomWeather, © 2014

See weather overviewHow to use our weather pages